CAPE
3 3 0 0 0 0 0 0 0 0 0 0 1 0 0 0 0 0 0 0 0 0 0 0 0 0 0 0 0 0 0 0 0 0 0 0 0 0 0 0 0 0 0 0 0 0 0
1 4 1 0 0 0 0 0 0 0 0 0 0 0 0 0 0 0 0 0 0 0 0 0 0 0 0 0 0 0 0 0 0 0 0 0 0 0 0 0 0 0 0 0 0 0 0
2 0 3 0 0 0 0 0 0 0 0 0 0 0 0 0 0 0 0 0 0 0 0 0 0 0 0 0 0 0 0 0 0 0 0 0 0 0 0 0 0 0 0 0 0 0 0
1 0 1 1 0 0 0 0 0 0 0 0 0 0 0 0 0 0 0 0 0 0 0 0 0 0 0 0 0 0 0 0 0 0 0 0 0 0 0 0 0 0 0 0 0 0 0
0 0 0 1 0 0 0 0 0 0 0 0 0 0 0 0 0 0 0 0 0 0 0 0 0 0 0 0 0 0 0 0 0 0 0 0 0 0 0 0 0 0 0 0 0 0 0
0 0 0 0 1 0 0 0 0 0 0 0 0 0 0 0 0 0 0 0 0 0 0 0 0 0 0 0 0 0 0 0 0 0 0 0 0 0 0 0 0 0 0 0 0 0 0
0 0 0 0 0 0 0 0 0 0 0 0 0 0 0 0 0 0 0 0 0 0 0 0 0 0 0 0 0 0 0 0 0 0 0 0 0 0 0 0 0 0 0 0 0 0 0
0 0 0 0 0 0 0 0 0 0 0 0 0 0 0 0 0 0 0 0 0 0 0 0 0 0 0 0 0 0 0 0 0 0 0 0 0 0 0 0 0 0 0 0 0 0 0
0 0 0 0 0 0 0 0 0 0 0 0 0 0 0 0 0 0 0 0 0 0 0 0 0 0 0 0 0 0 0 0 0 0 0 0 0 0 0 0 0 0 0 0 0 0 0
1 0 0 0 0 0 0 0 0 0 0 0 0 0 0 0 0 0 0 0 0 0 0 0 0 0 0 0 0 0 0 0 0 0 0 0 0 0 0 0 0 0 0 0 0 0 0
19 1 0 0 0 0 0 0 0 0 0 0 0 0 0 0 0 0 0 0 0 0 0 0 0 0 0 0 0 0 0 0 0 0 0 0 0 0 0 0 0 0 0 0 0 0 0
10 29 0 0 0 0 0 0 0 0 0 0 0 0 0 0 0 0 0 0 0 0 0 0 0 0 0 0 0 0 0 0 0 0 0 0 0 0 0 0 0 0 0 0 0 0 0
13 13 6 5 0 0 0 0 0 0 0 0 0 0 0 0 0 0 0 0 0 0 0 0 0 0 0 0 0 0 0 0 0 0 0 0 0 0 0 0 0 0 0 0 0 0 0
0 15 6 0 5 0 0 0 0 0 0 0 0 0 0 0 0 0 0 0 0 0 0 0 0 0 0 0 0 0 0 0 0 0 0 0 0 0 0 0 0 0 0 0 0 0 0
19 15 36 1 6 7 0 0 0 0 0 0 0 0 0 0 0 0 0 0 0 0 0 0 0 0 0 0 0 0 0 0 0 0 0 0 0 0 0 0 0 0 0 0 0 0 0
25 0 20 4 1 0 2 0 0 0 0 0 0 0 0 0 0 0 0 0 0 0 0 0 0 0 0 0 0 0 0 0 0 0 0 0 0 0 0 0 0 0 0 0 0 0 0
21 11 48 1 2 2 2 0 0 0 0 0 0 0 0 0 0 0 0 0 0 0 0 0 0 0 0 0 0 0 0 0 0 0 0 0 0 0 0 0 0 0 0 0 0 0 0
5 15 47 0 2 1 2 1 0 0 0 0 0 0 0 0 0 0 0 0 0 0 0 0 0 0 0 0 0 0 0 0 0 0 0 0 0 0 0 0 0 0 0 0 0 0 0
1 0 40 5 34 24 2 2 3 0 0 0 0 0 0 0 0 0 0 0 0 0 0 0 0 0 0 0 0 0 0 0 0 0 0 0 0 0 0 0 0 0 0 0 0 0 0
0 0 0 5 19 27 23 2 3 0 0 0 0 0 0 0 0 0 0 0 0 0 0 0 0 0 0 0 0 0 0 0 0 0 0 0 0 0 0 0 0 0 0 0 0 0 0
0 0 0 0 5 20 26 3 4 1 0 0 0 0 0 0 0 0 0 0 0 0 0 0 0 0 0 0 0 0 0 0 0 0 0 0 0 0 0 0 0 0 0 0 0 0 0
0 0 0 0 0 1 14 14 4 0 0 0 0 0 0 0 0 0 0 0 0 0 0 0 0 0 0 0 0 0 0 0 0 0 0 0 0 0 0 0 0 0 0 0 0 0 0
0 0 0 4 2 2 9 2 3 4 4 0 0 0 0 1 0 2 1 0 0 0 0 0 0 0 0 0 0 0 0 0 0 0 0 0 0 0 0 0 0 0 0 0 0 0 0
0 0 0 0 0 0 1 6 2 4 0 0 0 0 0 0 0 0 1 0 0 0 0 0 0 0 0 0 0 0 0 0 0 0 0 0 0 0 0 0 0 0 0 0 0 0 0
0 0 0 0 0 3 3 1 2 5 0 0 0 0 0 0 1 2 1 0 0 0 0 0 0 0 0 0 0 0 0 0 0 0 0 0 0 0 0 0 0 0 0 0 0 0 0
0 0 0 2 0 17 3 0 4 4 2 0 0 0 0 0 1 0 0 0 0 0 0 0 0 0 0 0 0 0 0 0 0 0 0 0 0 0 0 0 0 0 0 0 0 0 0
1 0 0 10 0 0 0 0 3 4 0 0 0 0 0 0 0 0 0 1 0 1 0 0 0 0 0 0 0 0 0 0 0 0 0 0 0 0 0 0 0 0 0 0 0 0 0
0 0 0 1 1 0 0 0 3 4 0 0 1 1 0 0 0 2 1 0 0 0 0 1 0 0 0 0 0 0 0 0 0 0 0 0 0 0 0 0 0 0 0 0 0 0 0
2 0 0 1 2 1 0 3 3 2 0 0 0 1 0 0 1 0 3 3 2 1 0 0 0 0 0 0 0 0 0 0 0 0 0 0 0 0 0 0 0 0 0 0 0 0 0
CIN
-0 -0 -0 -0 -0 -0 -0 -0 -0 -0 -0 -0 -0 -0 -0 -0 -0 -0 -0 -0 -0 -0 -0 -0 -0 -0 -0 -0 -0 -0 -0 -0 -0 -0 -0 -0 -0 -0 -0 -0 -0 -0 -0 -0 -0 -0 -0
-0 -0 -0 -0 -0 -0 -0 -0 -0 -0 -0 -0 -0 -0 -0 -0 -0 -0 -0 -0 -0 -0 -0 -0 -0 -0 -0 -0 -0 -0 -0 -0 -0 -0 -0 -0 -0 -0 -0 -0 -0 -0 -0 -0 -0 -0 -0
-0 -0 -0 -0 -0 -0 -0 -0 -0 -0 -0 -0 -0 -0 -0 -0 -0 -0 -0 -0 -0 -0 -0 -0 -0 -0 -0 -0 -0 -0 -0 -0 -0 -0 -0 -0 -0 -0 -0 -0 -0 -0 -0 -0 -0 -0 -0
-0 -0 -0 -0 -0 -0 -0 -0 -0 -0 -0 -0 -0 -0 -0 -0 -0 -0 -0 -0 -0 -0 -0 -0 -0 -0 -0 -0 -0 -0 -0 -0 -0 -0 -0 -0 -0 -0 -0 -0 -0 -0 -0 -0 -0 -0 -0
-0 -0 -0 -0 -0 -0 -0 -0 -0 -0 -0 -0 -0 -0 -0 -0 -0 -0 -0 -0 -0 -0 -0 -0 -0 -0 -0 -0 -0 -0 -0 -0 -0 -0 -0 -0 -0 -0 -0 -0 -0 -0 -0 -0 -0 -0 -0
-0 -0 -0 -0 -0 -0 -0 -0 -0 -0 -0 -0 -0 -0 -0 -0 -0 -0 -0 -0 -0 -0 -0 -0 -0 -0 -0 -0 -0 -0 -0 -0 -0 -0 -0 -0 -0 -0 -0 -0 -0 -0 -0 -0 -0 -0 -0
-0 -0 -0 -0 -0 -0 -0 -0 -0 -0 -0 -0 -0 -0 -0 -0 -0 -0 -0 -0 -0 -0 -0 -0 -0 -0 -0 -0 -0 -0 -0 -0 -0 -0 -0 -0 -0 -0 -0 -0 -0 -0 -0 -0 -0 -0 -0
-0 -0 -0 -0 -0 -0 -0 -0 -0 -0 -0 -0 -0 -0 -0 -0 -0 -0 -0 -0 -0 -0 -0 -0 -0 -0 -0 -0 -0 -0 -0 -0 -0 -0 -0 -0 -0 -0 -0 -0 -0 -0 -0 -0 -0 -0 -0
-0 -0 -0 -0 -0 -0 -0 -0 -0 -0 -0 -0 -0 -0 -0 -0 -0 -0 -0 -0 -0 -0 -0 -0 -0 -0 -0 -0 -0 -0 -0 -0 -0 -0 -0 -0 -0 -0 -0 -0 -0 -0 -0 -0 -0 -0 -0
-0 -0 -0 -0 -0 -0 -0 -0 -0 -0 -0 -0 -0 -0 -0 -0 -0 -0 -0 -0 -0 -0 -0 -0 -0 -0 -0 -0 -0 -0 -0 -0 -0 -0 -0 -0 -0 -0 -0 -0 -0 -0 -0 -0 -0 -0 -0
-17 -2 -0 -0 -0 -0 -0 -0 -0 -0 -0 -0 -0 -0 -0 -0 -0 -0 -0 -0 -0 -0 -0 -0 -0 -0 -0 -0 -0 -0 -0 -0 -0 -0 -0 -0 -0 -0 -0 -0 -0 -0 -0 -0 -0 -0 -0
-11 -12 -0 -2 -0 -0 -0 -0 -0 -0 -0 -0 -0 -0 -0 -0 -0 -0 -0 -0 -0 -0 -0 -0 -0 -0 -0 -0 -0 -0 -0 -0 -0 -0 -0 -0 -0 -0 -0 -0 -0 -0 -0 -0 -0 -0 -0
-18 -48 -20 -9 -0 -0 -0 -0 -0 -0 -0 -0 -0 -0 -0 -0 -0 -0 -0 -0 -0 -0 -0 -0 -0 -0 -0 -0 -0 -0 -0 -0 -0 -0 -0 -0 -0 -0 -0 -0 -0 -0 -0 -0 -0 -0 -0
-0 -14 -1 -0 -18 -0 -0 -0 -0 -0 -0 -0 -0 -0 -0 -0 -0 -0 -0 -0 -0 -0 -0 -0 -0 -0 -0 -0 -0 -0 -0 -0 -0 -0 -0 -0 -0 -0 -0 -0 -0 -0 -0 -0 -0 -0 -0
-29 -4 -0 -0 -5 -27 -0 -0 -0 -0 -0 -0 -0 -0 -0 -0 -0 -0 -0 -0 -0 -0 -0 -0 -0 -0 -0 -0 -0 -0 -0 -0 -0 -0 -0 -0 -0 -0 -0 -0 -0 -0 -0 -0 -0 -0 -0
-38 -0 -1 -25 -7 -0 -13 -0 -0 -0 -0 -0 -0 -0 -0 -0 -0 -0 -0 -0 -0 -0 -0 -0 -0 -0 -0 -0 -0 -0 -0 -0 -0 -0 -0 -0 -0 -0 -0 -0 -0 -0 -0 -0 -0 -0 -0
-77 -28 -1 -6 -32 -0 -3 -0 -0 -0 -0 -0 -0 -0 -0 -0 -0 -0 -0 -0 -0 -0 -0 -0 -0 -0 -0 -0 -0 -0 -0 -0 -0 -0 -0 -0 -0 -0 -0 -0 -0 -0 -0 -0 -0 -0 -0
-23 -3 -0 -0 -18 -11 -0 -0 -0 -0 -0 -0 -0 -0 -0 -0 -0 -0 -0 -0 -0 -0 -0 -0 -0 -0 -0 -0 -0 -0 -0 -0 -0 -0 -0 -0 -0 -0 -0 -0 -0 -0 -0 -0 -0 -0 -0
-15 -11 -2 -0 -23 -10 -3 -0 -0 -0 -0 -0 -0 -0 -0 -0 -0 -0 -0 -0 -0 -0 -0 -0 -0 -0 -0 -0 -0 -0 -0 -0 -0 -0 -0 -0 -0 -0 -0 -0 -0 -0 -0 -0 -0 -0 -0
-0 -0 -0 -5 -8 -23 -20 -6 -0 -0 -0 -0 -0 -0 -0 -0 -0 -0 -0 -0 -0 -0 -0 -0 -0 -0 -0 -0 -0 -0 -0 -0 -0 -0 -0 -0 -0 -0 -0 -0 -0 -0 -0 -0 -0 -0 -0
-0 -0 -0 -0 -3 -16 -14 -9 -0 -0 -0 -0 -0 -0 -0 -0 -0 -0 -0 -0 -0 -0 -0 -0 -0 -0 -0 -0 -0 -0 -0 -0 -0 -0 -0 -0 -0 -0 -0 -0 -0 -0 -0 -0 -0 -0 -0
-0 -0 -0 -0 -0 -32 -33 -56 -0 -0 -0 -0 -0 -0 -0 -0 -0 -0 -0 -0 -0 -0 -0 -0 -0 -0 -0 -0 -0 -0 -0 -0 -0 -0 -0 -0 -0 -0 -0 -0 -0 -0 -0 -0 -0 -0 -0
-0 -0 -0 -0 -0 -0 -85 -56 -0 -0 -0 -0 -0 -0 -0 -0 -0 -0 -0 -0 -0 -0 -0 -0 -0 -0 -0 -0 -0 -0 -0 -0 -0 -0 -0 -0 -0 -0 -0 -0 -0 -0 -0 -0 -0 -0 -0
-0 -0 -0 -0 -0 -0 -0 -78 -0 -0 -0 -0 -0 -0 -0 -0 -0 -0 -0 -0 -0 -0 -0 -0 -0 -0 -0 -0 -0 -0 -0 -0 -0 -0 -0 -0 -0 -0 -0 -0 -0 -0 -0 -0 -0 -0 -0
-0 -0 -0 -0 -0 -126 -27 -0 -0 -0 -0 -0 -0 -0 -0 -0 -0 -0 -0 -0 -0 -0 -0 -0 -0 -0 -0 -0 -0 -0 -0 -0 -0 -0 -0 -0 -0 -0 -0 -0 -0 -0 -0 -0 -0 -0 -0
-0 -0 -0 -3 -11 -64 -81 -0 -0 -0 -0 -0 -0 -0 -0 -0 -0 -0 -0 -0 -0 -0 -0 -0 -0 -0 -0 -0 -0 -0 -0 -0 -0 -0 -0 -0 -0 -0 -0 -0 -0 -0 -0 -0 -0 -0 -0
-1 -0 -0 -60 -84 -16 -0 -0 -0 -0 -0 -0 -0 -0 -0 -0 -0 -0 -0 -0 -0 -0 -0 -0 -0 -0 -0 -0 -0 -0 -0 -0 -0 -0 -0 -0 -0 -0 -0 -0 -0 -0 -0 -0 -0 -0 -0
-0 -0 -0 -9 -22 -0 -0 -0 -0 -0 -0 -0 -0 -0 -0 -0 -0 -0 -0 -0 -0 -0 -0 -0 -0 -0 -0 -0 -0 -0 -0 -0 -0 -0 -0 -0 -0 -0 -0 -0 -0 -0 -0 -0 -0 -0 -0
-7 -0 -0 -0 -0 -0 -0 -0 -0 -0 -0 -0 -0 -0 -0 -0 -0 -0 -0 -0 -0 -0 -0 -0 -0 -0 -0 -0 -0 -0 -0 -0 -0 -0 -0 -0 -0 -0 -0 -0 -0 -0 -0 -0 -0 -0 -0
Wind_Speed
21 20 20 20 19 17 16 15 14 14 13 13 14 14 14 15 17 17 15 15 14 13 12 10 9 10 13 17 14 9 19 18 18 8 16 14 13 13 12 14 13 13 12 13 13 16 17
22 22 21 21 20 18 17 16 15 14 13 13 12 13 13 14 15 17 16 16 16 15 14 11 10 13 13 13 10 18 21 22 21 19 17 14 15 15 15 14 13 14 14 13 12 13 15
23 23 22 21 20 19 18 17 16 15 14 13 12 13 14 15 17 18 18 18 18 16 16 14 12 14 21 16 14 19 21 18 20 19 16 17 16 14 13 14 13 12 13 12 13 14 14
24 23 22 21 20 19 18 17 16 16 15 14 14 14 16 16 18 20 20 20 20 18 20 20 14 14 19 16 15 23 22 17 20 18 17 17 17 16 16 14 13 11 11 10 14 17 15
25 24 23 22 21 20 19 18 17 16 16 16 16 15 16 17 19 20 21 22 22 19 20 19 18 17 18 16 18 20 20 16 12 16 16 15 16 15 14 11 11 11 13 13 14 18 18
27 26 23 22 21 20 20 19 18 17 17 17 17 15 15 16 18 21 22 21 21 22 17 17 19 19 19 20 19 18 19 16 15 14 14 13 12 12 12 12 12 14 13 15 17 19 21
29 27 26 23 22 21 20 19 18 17 17 16 16 15 14 15 18 20 22 20 19 19 23 20 21 19 19 20 17 20 18 19 15 14 15 14 14 16 16 16 13 14 15 16 18 19 22
29 29 27 26 23 22 21 19 18 17 17 16 14 14 15 15 18 19 19 20 19 18 21 20 19 18 18 18 17 22 22 17 16 17 16 15 17 17 16 17 16 15 16 17 16 18 20
33 30 29 27 25 24 21 19 18 18 17 16 15 14 15 16 18 19 19 18 17 19 21 20 18 19 17 18 17 20 20 17 18 18 19 17 17 17 17 18 18 19 18 20 20 24 17
35 32 30 29 27 25 23 20 18 17 17 16 15 15 15 15 18 16 18 15 18 20 23 20 17 17 16 15 16 19 19 18 18 17 19 19 17 17 17 18 20 18 20 21 24 27 24
30 33 33 30 29 27 25 22 20 17 16 15 15 16 16 13 18 17 17 15 18 20 25 17 15 15 15 15 15 18 17 17 18 18 17 18 18 19 19 19 20 19 20 21 22 22 24
29 34 31 33 30 28 26 23 21 18 17 15 15 15 13 15 17 16 14 15 19 21 21 17 15 15 14 14 15 16 16 17 16 18 21 17 16 18 18 17 19 18 20 20 21 20 25
22 29 31 28 30 29 28 25 22 19 17 16 14 14 16 17 18 13 13 17 23 20 18 18 16 13 15 14 15 16 16 17 19 20 18 17 18 17 18 18 18 19 23 26 26 25 25
20 26 28 28 29 30 28 26 22 19 17 15 13 14 17 16 16 13 15 21 24 22 18 17 17 16 18 14 15 14 15 15 17 17 18 18 21 18 19 19 20 22 22 23 27 27 28
24 31 34 29 31 28 28 27 23 20 17 14 12 17 18 18 16 15 19 25 23 22 17 15 17 18 18 16 16 14 15 17 17 17 16 18 19 17 18 18 20 20 22 19 25 26 30
26 22 21 29 32 31 26 25 22 20 18 15 18 19 21 19 16 17 25 28 24 20 16 15 19 15 19 17 15 14 15 17 15 16 16 17 21 19 19 18 19 18 16 23 23 30 33
29 24 21 28 29 28 26 23 21 20 17 15 20 23 22 19 16 21 30 28 25 21 19 17 19 19 19 20 17 16 17 17 17 16 18 18 20 20 19 18 18 18 21 20 21 23 31
29 26 23 20 30 28 25 23 20 18 17 21 23 29 23 18 23 26 30 27 23 22 21 21 20 19 19 19 20 19 18 17 17 16 18 18 20 23 22 18 19 19 20 17 24 26 23
31 28 24 23 27 30 26 21 22 19 17 17 23 24 21 22 29 30 28 27 25 22 22 20 20 19 19 19 20 19 18 17 16 17 17 16 21 26 25 22 18 18 17 17 18 21 25
33 32 29 32 30 30 30 21 21 20 19 18 20 25 24 25 26 28 29 29 27 23 22 21 20 18 18 20 20 18 17 15 14 15 16 16 20 22 27 26 21 22 18 15 17 24 27
36 37 31 31 38 35 32 24 22 20 21 22 26 28 23 28 34 30 27 28 28 26 23 20 22 20 19 20 19 18 17 15 15 15 17 17 24 23 22 23 22 23 22 20 21 23 28
37 39 35 34 36 43 42 23 23 24 22 23 26 26 26 28 26 26 27 29 25 23 21 23 24 19 17 19 18 16 15 16 19 14 15 16 23 23 26 23 22 26 23 25 26 27 31
37 36 36 38 35 42 41 39 28 25 21 27 26 24 25 28 28 28 31 26 23 19 22 21 18 16 16 17 15 15 14 14 14 14 15 17 19 23 30 23 28 32 26 20 25 26 27
37 38 38 43 40 39 45 41 29 24 20 28 28 26 28 34 29 30 26 25 22 20 20 18 16 16 14 5 8 13 15 17 16 17 16 16 17 20 28 27 37 25 23 26 26 28 23
38 40 39 45 42 37 30 21 24 26 22 27 23 26 27 31 30 28 24 22 17 18 19 17 18 16 3 11 17 21 23 23 23 20 17 16 16 22 26 28 33 35 27 26 29 34 26
38 38 38 42 36 32 27 20 23 24 20 22 21 21 25 28 30 25 23 21 21 19 16 16 13 10 11 15 19 25 27 22 22 19 16 16 18 18 22 30 37 29 24 23 26 43 26
36 36 34 31 31 29 25 21 21 21 18 17 18 19 21 25 23 20 23 20 16 16 16 13 12 14 16 18 22 23 24 19 23 21 19 18 19 22 24 31 36 27 21 21 36 39 26
37 36 32 30 26 26 22 19 19 19 15 15 17 18 17 23 19 18 16 13 13 13 17 12 13 17 16 18 20 20 22 18 20 18 19 18 18 23 24 32 42 18 21 28 28 28 29
35 35 32 28 28 25 15 17 16 16 15 11 16 12 10 14 13 9 7 10 11 12 13 11 17 12 12 16 17 17 19 18 19 26 19 24 20 25 22 28 24 15 25 24 27 31 32
Wind_Direction
281 281 278 278 281 289 295 305 314 327 343 358 12 27 27 15 17 346 304 294 285 271 252 220 208 162 121 66 78 237 287 287 321 292 34 66 100 81 78 54 72 70 76 57 52 354 326
279 277 277 276 279 286 292 301 311 322 335 346 356 5 352 351 353 327 292 292 287 278 265 229 209 113 98 74 95 331 304 339 336 336 16 17 23 25 35 40 45 50 47 56 61 36 3
278 277 277 277 278 283 288 294 302 310 320 330 342 342 328 330 315 298 287 292 288 279 273 249 218 89 11 40 67 35 5 27 357 354 21 8 5 21 54 44 47 60 42 50 33 19 7
276 277 278 277 279 281 286 292 297 303 311 316 322 324 313 320 309 298 292 290 287 280 305 326 65 59 20 44 59 0 356 45 4 11 19 3 6 16 5 37 36 58 56 54 16 2 5
273 274 275 277 277 280 282 286 292 296 302 307 310 314 311 313 304 301 297 296 310 357 354 1 10 19 11 46 31 20 22 55 99 44 33 27 18 36 35 55 47 44 25 16 8 351 347
270 270 273 274 275 277 279 280 287 292 296 301 303 311 314 316 314 305 297 308 324 344 16 17 8 360 0 359 7 23 8 27 38 63 63 66 67 61 54 37 24 16 13 3 351 345 336
266 267 268 271 272 273 276 278 282 288 295 300 305 309 316 320 314 310 310 331 345 350 348 351 344 353 359 356 28 9 19 10 35 38 30 36 33 20 19 18 21 7 358 353 349 344 336
262 263 265 266 268 270 272 275 278 284 290 296 305 310 312 317 317 314 322 329 340 349 343 353 356 3 8 13 13 355 346 26 32 21 24 25 14 10 11 9 8 6 359 354 354 352 346
258 260 261 263 264 266 269 271 275 278 284 292 298 305 309 311 315 317 322 335 345 343 335 343 350 350 0 5 9 1 1 19 20 17 9 11 11 11 9 4 359 357 353 349 346 341 347
256 257 259 259 261 263 265 267 270 275 280 286 292 297 304 312 311 321 320 341 340 340 324 336 347 351 3 9 7 5 6 13 11 11 8 7 8 6 4 359 353 350 351 347 339 335 333
256 256 256 256 257 259 261 263 265 269 275 281 287 292 296 305 308 310 322 334 337 330 313 343 352 6 9 359 6 2 14 17 5 7 5 358 358 356 352 351 351 347 349 345 342 339 335
259 257 258 254 254 255 257 258 260 263 268 274 282 290 295 295 302 314 327 330 322 317 316 335 346 350 355 3 3 9 7 11 16 5 1 3 9 358 357 359 353 352 347 344 343 341 329
265 261 259 250 251 251 253 254 256 258 262 267 274 284 287 294 293 314 321 314 302 305 324 326 333 344 345 357 356 354 356 356 350 349 350 358 355 359 355 349 353 349 340 331 330 330 329
263 263 262 252 247 249 248 249 251 252 255 262 268 277 287 292 301 305 302 292 291 303 310 326 328 331 327 345 347 352 352 347 350 347 344 343 339 352 351 347 342 341 339 332 325 326 325
255 270 263 251 242 243 243 244 245 246 250 251 259 274 279 286 294 293 283 282 290 300 312 311 319 319 322 328 339 342 341 341 347 342 340 342 342 352 351 349 346 342 335 340 327 325 321
256 268 263 254 251 240 237 238 239 239 240 239 258 267 273 283 288 283 273 278 285 297 308 312 307 317 316 322 329 335 336 346 344 337 340 339 333 339 341 344 344 341 348 331 330 322 318
255 260 266 260 251 241 230 229 228 230 230 237 256 262 273 280 282 273 268 275 284 292 299 303 303 309 313 314 317 325 331 340 337 332 331 334 331 334 339 334 335 336 331 333 332 326 319
255 258 260 261 255 244 231 224 219 218 225 250 255 258 272 270 265 271 268 278 289 288 292 297 301 304 306 310 310 314 318 328 331 329 325 332 332 326 328 336 335 333 331 330 323 323 322
252 253 258 255 252 249 241 228 214 207 209 242 250 258 272 265 262 264 275 276 284 286 288 290 293 299 307 304 308 313 319 327 327 323 325 332 327 324 326 331 334 329 330 329 330 329 317
251 251 252 254 249 249 245 227 212 208 213 243 254 258 266 264 270 267 269 275 275 285 286 287 291 296 300 300 306 312 316 324 328 324 333 331 322 318 315 322 331 326 326 323 317 317 317
249 248 251 251 247 245 245 241 218 211 214 245 254 263 266 266 259 265 268 277 272 277 282 281 285 285 289 297 299 301 311 319 323 323 323 325 316 319 316 319 317 314 313 310 302 301 307
249 246 249 248 250 242 238 246 221 204 201 252 254 262 266 266 268 258 267 274 269 274 276 275 278 276 284 292 296 295 302 307 311 317 315 321 317 323 317 322 317 311 307 303 299 302 302
248 247 248 246 248 245 243 241 230 223 217 257 258 272 266 267 263 261 265 271 268 271 280 284 272 278 280 291 307 318 319 321 318 315 311 315 318 320 314 325 323 314 312 305 311 311 310
249 247 248 246 247 248 239 238 226 199 213 259 261 263 263 265 262 262 268 267 267 266 276 278 281 280 289 316 339 332 332 328 324 322 322 312 316 318 315 322 312 323 327 325 314 316 311
250 247 248 246 246 248 243 220 195 194 201 263 270 264 261 266 264 268 262 267 268 277 272 274 286 292 232 297 300 304 307 309 310 314 312 316 310 312 314 312 315 315 320 322 319 321 321
247 245 248 248 243 242 234 216 203 201 214 265 270 271 267 264 265 271 262 257 266 263 267 277 291 294 293 296 296 294 297 306 310 319 320 312 309 305 314 313 313 323 330 333 332 317 329
243 244 249 241 239 236 232 226 208 200 229 254 270 275 270 268 276 271 263 256 264 257 263 272 272 280 293 290 291 294 295 307 304 307 311 310 308 296 302 309 313 322 329 336 322 324 334
240 241 243 237 233 234 237 220 199 206 222 256 269 276 275 272 280 282 277 261 263 260 263 271 280 285 284 284 290 295 296 296 303 307 310 306 308 310 308 309 311 328 332 322 328 332 330
239 237 235 237 233 227 210 197 194 206 219 246 262 282 302 282 285 303 306 302 293 282 274 249 290 290 279 290 291 301 300 306 304 305 306 305 308 313 308 316 326 320 325 328 330 328 327